"2016-04-13 00:00:00",1542171,8.32,42.15,6.162,1.242,17.8,104.9055,11.83,13.01,45.66,0,110.5,13.12,12.62,4.2
"2016-04-13 00:00:30",1542172,8.06,39.64,5.136,1.557,15.76,104.8965,11.81,12.89,46.01,0,110.5,13.13,12.60,1.6
"2016-04-13 00:01:00",1542173,6.761,37.01,3.57,1.311,14.51,104.888,11.79,12.77,46.12,0,110.5,13.18,12.58,359.0
"2016-04-13 00:01:30",1542174,9.05,43.35,4.476,0.82,15.09,104.8765,11.76,12.76,47.42,0,110.5,13.14,12.55,5.3
"2016-04-13 00:02:00",1542175,8.26,49.32,10.05,1.268,16.53,104.8731,11.75,12.92,47.56,0,110.5,13.14,12.54,11.3
"2016-04-13 00:02:30",1542176,9.77,54.16,8.38,1.549,18.79,104.8728,11.75,12.99,48.44,0,110.5,13.14,12.54,16.2
"2016-04-13 00:03:00",1542177,9.13,58.8,8.54,1.166,17.56,104.8731,11.75,12.94,48.88,0,110.5,13.14,12.54,20.8
"2016-04-13 00:03:30",1542178,7.899,50.74,8.52,1.499,16.61,104.8731,11.75,12.87,48.84,0,110.5,13.14,12.54,12.7
"2016-04-13 00:04:00",1542179,6.856,43.73,6.538,1.271,15.96,104.8728,11.75,12.8,48.98,0,110.5,13.14,12.54,5.7
"2016-04-13 00:04:30",1542180,6.421,38.52,2.534,0.797,14.57,104.8731,11.75,12.72,49.19,0,110.5,13.19,12.54,0.5
"2016-04-13 00:05:00",1542181,5.807,37.43,1.508,0.423,14.59,104.8731,11.75,12.73,49.41,0,110.5,13.19,12.54,359.4
"2016-04-13 00:05:30",1542182,7.727,46.12,7.187,1.385,16.04,104.8731,11.75,12.82,49.62,0,110.5,13.14,12.54,8.1
"2016-04-13 00:06:00",1542183,8.83,48.2,7.232,1.577,17.83,104.8731,11.75,12.88,50.17,0,110.5,13.14,12.54,10.2
"2016-04-13 00:06:30",1542184,7.8,44.88,8.07,1.61,17.91,104.8706,11.74,12.9,50.32,0,110.5,13.14,12.53,6.9
"2016-04-13 00:07:00",1542185,8.04,45.84,8.23,1.8,17.96,104.866,11.73,12.95,50.44,0,110.5,13.14,12.52,7.8
"2016-04-13 00:07:30",1542186,8.58,49.04,6.489,1.187,16.31,104.8581,11.71,12.8,49.75,0,110.5,13.14,12.50,11.0
"2016-04-13 00:08:00",1542187,6.016,33.94,5.112,0.747,14.4,104.8522,11.69,12.69,48.36,0,110.5,13.19,12.49,355.9
"2016-04-13 00:08:30",1542188,6.106,33.2,6.663,0.825,14.41,104.8418,11.67,12.68,47.44,0,110.4,13.19,12.46,355.2
"2016-04-13 00:09:00",1542189,7.076,40.36,5.027,0.573,14.74,104.8392,11.66,12.71,47.72,0,110.5,13.19,12.45,2.4
"2016-04-13 00:09:30",1542190,6.521,42.84,8.95,2.052,17.85,104.8392,11.66,12.84,47.92,0,110.5,13.14,12.45,4.8
"2016-04-13 00:10:00",1542191,6.554,40.85,7.594,1.576,17.85,104.8392,11.66,12.82,48.06,0,110.5,13.14,12.45,2.8
"2016-04-13 00:10:30",1542192,8.44,48.45,7.398,1.691,18.55,104.8392,11.66,12.9,47.52,0,110.5,13.14,12.45,10.5
"2016-04-13 00:11:00",1542193,6.6,42.21,6.443,0.993,16.34,104.8392,11.66,12.8,47.07,0,110.5,13.14,12.45,4.2
"2016-04-13 00:11:30",1542194,6.738,40.76,2.873,0.575,14.44,104.839,11.66,12.63,47.08,0,110.5,13.19,12.45,2.8
"2016-04-13 00:12:00",1542195,4.359,36.67,2.535,0.475,14.43,104.8356,11.65,12.64,47.07,0,110.5,13.19,12.44,358.7
"2016-04-13 00:12:30",1542196,5.208,38.66,3.347,0.814,14.6,104.8316,11.64,12.63,47.5,0,110.5,13.19,12.43,0.7
"2016-04-13 00:13:00",1542197,6.542,43.02,5.757,1.541,16.08,104.8277,11.63,12.72,47.96,0,110.5,13.14,12.42,5.0
"2016-04-13 00:13:30",1542198,7.875,47.44,7.92,2.144,17.77,104.8235,11.62,12.82,46.63,0,110.5,13.14,12.41,9.4
"2016-04-13 00:14:00",1542199,8.88,47.56,7.263,1.833,18.24,104.8218,11.62,12.86,46.34,0,110.5,13.14,12.41,9.6
"2016-04-13 00:14:30",1542200,8.32,45.33,8.43,1.805,17.38,104.8136,11.6,12.77,45.93,0,110.5,13.14,12.39,7.3
"2016-04-13 00:15:00",1542201,7,39.87,6.711,1.45,15.98,104.8096,11.59,12.67,46,0,110.5,13.14,12.38,1.9
"2016-04-13 00:15:30",1542202,7.059,36.78,1.622,0.789,14.5,104.8105,11.59,12.6,46.03,0,110.5,13.18,12.38,358.8
"2016-04-13 00:16:00",1542203,5.859,37.76,2.673,0.737,14.64,104.8099,11.59,12.6,45.94,0,110.5,13.19,12.38,359.8
"2016-04-13 00:16:30",1542204,5.455,35.16,2.775,0.99,14.74,104.8102,11.59,12.6,45.67,0,110.4,13.14,12.38,357.2
"2016-04-13 00:17:00",1542205,8.44,46.19,8.15,2.067,17.21,104.8164,11.6,12.76,45.76,0,110.5,13.14,12.40,8.2
"2016-04-13 00:17:30",1542206,9.12,47.5,7.543,1.487,18.31,104.817,11.6,12.76,45.85,0,110.5,13.14,12.40,9.5
"2016-04-13 00:18:00",1542207,7.908,44.77,7.956,1.94,18.3,104.815,11.6,12.81,46.02,0,110.5,13.14,12.39,6.8
"2016-04-13 00:18:30",1542208,8.8,45.19,7.162,1.069,17.28,104.8139,11.6,12.72,46.1,0,110.4,13.14,12.39,7.2
"2016-04-13 00:19:00",1542209,7.471,39.96,2.078,0.782,14.61,104.8122,11.59,12.59,45.88,0,110.5,13.19,12.38,2.0
"2016-04-13 00:19:30",1542210,5.966,36.49,2.932,0.813,14.5,104.8108,11.59,12.59,46,0,110.4,13.19,12.38,358.5
"2016-04-13 00:20:00",1542211,6.638,41.46,2.546,0.618,14.73,104.8071,11.58,12.59,46.02,0,110.4,13.19,12.37,3.5
"2016-04-13 00:20:30",1542212,8.74,51.98,6.543,1.456,17.19,104.8063,11.58,12.74,46.04,0,110.5,13.15,12.37,14.0
"2016-04-13 00:21:00",1542213,9.05,52.6,8.37,1.433,18.59,104.8068,11.58,12.81,46.02,0,110.5,13.15,12.37,14.6
"2016-04-13 00:21:30",1542214,9.24,54.56,6.306,1.42,18.93,104.8063,11.58,12.8,46.07,0,110.5,13.15,12.37,16.6
"2016-04-13 00:22:00",1542215,7.858,46.4,6.318,1.247,16.71,104.8057,11.58,12.7,45.93,0,110.5,13.15,12.37,8.4
"2016-04-13 00:22:30",1542216,6.923,42.49,2.729,0.523,14.59,104.8054,11.57,12.58,45.81,0,110.5,13.19,12.37,4.5
"2016-04-13 00:23:00",1542217,6.343,40.82,3.856,0.595,14.42,104.8054,11.57,12.59,46.06,0,110.5,13.19,12.37,2.8
"2016-04-13 00:23:30",1542218,6.788,44.93,2.756,0.27,14.7,104.8054,11.57,12.59,46.01,0,110.5,13.2,12.37,6.9
"2016-04-13 00:24:00",1542219,7.064,49.59,6.886,0.904,15.7,104.8054,11.57,12.63,46.19,0,110.5,13.15,12.37,11.6
"2016-04-13 00:24:30",1542220,9.07,56.6,6.84,1.418,18.56,104.8054,11.57,12.8,46.41,0,110.5,13.15,12.37,18.6
"2016-04-13 00:25:00",1542221,8.65,58.1,7.103,1.343,18.89,104.8054,11.57,12.83,46.34,0,110.5,13.15,12.37,20.1
"2016-04-13 00:25:30",1542222,7.959,58.63,8.34,1.33,17.85,104.8054,11.57,12.76,46.49,0,110.5,13.15,12.37,20.6
"2016-04-13 00:26:00",1542223,6.487,41.59,2.122,0.262,14.77,104.8054,11.57,12.66,46.4,0,110.5,13.2,12.37,3.6
"2016-04-13 00:26:30",1542224,5.565,36.46,1.952,0.681,14.39,104.8054,11.57,12.59,46,0,110.5,13.2,12.37,358.5
"2016-04-13 00:27:00",1542225,6.628,40.18,1.025,0.209,14.52,104.8054,11.57,12.58,45.98,0,110.5,13.2,12.37,2.2
"2016-04-13 00:27:30",1542226,6.903,41.37,1.437,0.262,14.81,104.8057,11.58,12.58,45.81,0,110.5,13.2,12.37,3.4
"2016-04-13 00:28:00",1542227,7.128,45.5,7.9,1.769,17.47,104.8063,11.58,12.79,46.14,0,110.5,13.15,12.37,7.5
"2016-04-13 00:28:30",1542228,8.13,54.54,8.22,1.405,18.57,104.8066,11.58,12.83,46.1,0,110.5,13.15,12.37,16.5
"2016-04-13 00:29:00",1542229,8.06,53.44,7.275,1.507,18.37,104.806,11.58,12.82,46.03,0,110.5,13.15,12.37,15.4
"2016-04-13 00:29:30",1542230,6.409,50.92,6.038,1.213,16.25,104.8066,11.58,12.67,45.47,0,110.5,13.15,12.37,12.9
"2016-04-13 00:30:00",1542231,5.42,46.79,3.669,0.377,14.63,104.8084,11.58,12.57,44.91,0,110.5,13.19,12.37,8.8
"2016-04-13 00:30:30",1542232,5.356,50.51,4.307,0.386,14.68,104.8111,11.59,12.57,44.9,0,110.5,13.19,12.38,12.5
"2016-04-13 00:31:00",1542233,5.228,49.97,2.552,0.261,14.74,104.812,11.59,12.57,44.57,0,110.5,13.19,12.38,12.0
"2016-04-13 00:31:30",1542234,5.589,52.95,4.791,0.801,15.13,104.811,11.59,12.56,44.83,0,110.5,13.15,12.38,15.0
"2016-04-13 00:32:00",1542235,6.684,52.51,7.962,1.358,17.27,104.8131,11.59,12.76,44.82,0,110.4,13.15,12.39,14.5
"2016-04-13 00:32:30",1542236,7.137,58.11,9.53,1.312,19.02,104.8146,11.6,12.72,44.63,0,110.5,13.15,12.39,20.1
"2016-04-13 00:33:00",1542237,7.416,60.89,8.15,1.404,18.22,104.8134,11.59,12.83,44.57,0,110.4,13.15,12.39,22.9
"2016-04-13 00:33:30",1542238,5.492,53.46,6.448,1.173,16.73,104.8146,11.6,12.73,44.67,0,110.4,13.15,12.39,15.5
"2016-04-13 00:34:00",1542239,4.674,54.14,3.837,0.247,14.55,104.8143,11.6,12.58,44.2,0,110.4,13.19,12.39,16.1
"2016-04-13 00:34:30",1542240,4.821,48.65,4.468,0.351,14.41,104.8152,11.6,12.58,44.2,0,110.4,13.2,12.39,10.7
"2016-04-13 00:35:00",1542241,4.249,58.31,5.054,0.368,14.63,104.8149,11.6,12.59,44.45,0,110.4,13.2,12.39,20.3
"2016-04-13 00:35:30",1542242,4.18,49.5,6.706,0.273,14.88,104.8152,11.6,12.6,44.12,0,110.5,13.2,12.39,11.5
"2016-04-13 00:36:00",1542243,5.102,43.75,5.708,1.235,16.35,104.8158,11.6,12.71,44.54,0,110.4,13.16,12.39,5.8
"2016-04-13 00:36:30",1542244,5.79,50.15,6.794,1.389,17.23,104.8178,11.61,12.76,44.83,0,110.4,13.16,12.40,12.2
"2016-04-13 00:37:00",1542245,6.086,47.81,8.15,1.514,18.55,104.8196,11.61,12.84,45.17,0,110.4,13.15,12.40,9.8
"2016-04-13 00:37:30",1542246,6.526,50.47,7.52,1.47,17.98,104.822,11.62,12.88,45.52,0,110.4,13.15,12.41,12.5
"2016-04-13 00:38:00",1542247,5.075,40.79,3.276,0.552,14.68,104.8217,11.62,12.62,45.29,0,110.4,13.16,12.41,2.8
"2016-04-13 00:38:30",1542248,4.915,40.38,2.636,0.364,14.36,104.8205,11.61,12.6,45.1,0,110.4,13.2,12.41,2.4
"2016-04-13 00:39:00",1542249,4.258,41.3,2.936,0.268,14.55,104.8212,11.61,12.6,45.03,0,110.4,13.2,12.41,3.3
"2016-04-13 00:39:30",1542250,4.584,43.51,1.465,0.336,14.74,104.819,11.61,12.6,44.93,0,110.4,13.2,12.40,5.5
"2016-04-13 00:40:00",1542251,5.097,43.06,4.698,0.984,15.85,104.8154,11.6,12.69,45.02,0,110.4,13.16,12.39,5.1
"2016-04-13 00:40:30",1542252,5.669,45.5,7.42,1.28,17.37,104.8071,11.58,12.7,44.99,0,110.4,13.16,12.37,7.5
"2016-04-13 00:41:00",1542253,6.114,49.14,8.5,1.414,18.71,104.8019,11.57,12.86,45.1,0,110.4,13.16,12.36,11.1
"2016-04-13 00:41:30",1542254,5.811,46.59,7.369,1.427,18.19,104.7973,11.55,12.83,44.97,0,110.4,13.16,12.35,8.6
"2016-04-13 00:42:00",1542255,3.554,34.84,2.102,0.446,14.61,104.7997,11.56,12.61,44.66,0,110.4,13.2,12.35,356.8
"2016-04-13 00:42:30",1542256,4.2,37.52,6.079,0.466,14.31,104.8014,11.56,12.57,44.56,0,110.4,13.2,12.36,359.5
"2016-04-13 00:43:00",1542257,4.221,40.8,2.56,0.394,14.43,104.8002,11.56,12.57,44.53,0,110.4,13.2,12.35,2.8
"2016-04-13 00:43:30",1542258,3.999,38.99,2.28,0.524,14.68,104.8026,11.57,12.57,44.48,0,110.4,13.21,12.36,1.0
"2016-04-13 00:44:00",1542259,4.053,39.46,1.716,0.237,14.83,104.8035,11.57,12.55,44.48,0,110.4,13.21,12.36,1.5
"2016-04-13 00:44:30",1542260,4.369,41.81,6.764,1.252,16.33,104.7946,11.55,12.65,44.64,0,110.4,13.17,12.34,3.8
"2016-04-13 00:45:00",1542261,4.997,39.02,9.25,1.476,17.75,104.7927,11.54,12.76,44.68,0,110.4,13.17,12.33,1.0
"2016-04-13 00:45:30",1542262,4.938,43.6,8.51,1.541,18.46,104.7919,11.54,12.77,44.68,0,110.5,13.16,12.33,5.6
"2016-04-13 00:46:00",1542263,4.506,40.53,7.48,1.461,17.55,104.7849,11.52,12.68,44.48,0,110.4,13.15,12.31,2.5
"2016-04-13 00:46:30",1542264,2.752,29.42,2.609,0.324,14.4,104.7797,11.51,12.53,44.27,0,110.4,13.2,12.30,351.4
"2016-04-13 00:47:00",1542265,3.071,31.67,4.35,0.349,14.23,104.7746,11.5,12.52,44.25,0,110.4,13.2,12.29,353.7
"2016-04-13 00:47:30",1542266,3.28,33.51,2.446,0.436,14.47,104.7726,11.49,12.53,44.26,0,110.4,13.2,12.28,355.5
"2016-04-13 00:48:00",1542267,2.788,30.34,3.323,0.345,14.74,104.7729,11.49,12.51,44.13,0,110.4,13.2,12.28,352.3
"2016-04-13 00:48:30",1542268,2.871,33.76,3.245,0.251,15.03,104.7732,11.49,12.5,43.9,0,110.4,13.2,12.28,355.8
"2016-04-13 00:49:00",1542269,2.877,26.05,2.872,0.27,15.1,104.7723,11.49,12.51,43.87,0,110.4,13.2,12.28,348.0
"2016-04-13 00:49:30",1542270,3.393,31.65,7.586,1.336,17.09,104.772,11.49,12.59,44.04,0,110.4,13.16,12.28,353.6
"2016-04-13 00:50:00",1542271,4.278,39.96,8.2,1.513,18.85,104.7705,11.49,12.76,44.15,0,110.4,13.15,12.28,2.0
"2016-04-13 00:50:30",1542272,3.953,40.28,6.511,1.371,17.7,104.7723,11.49,12.68,44.04,0,110.4,13.15,12.28,2.3
"2016-04-13 00:51:00",1542273,3.818,35.24,8.36,1.38,16.91,104.7726,11.49,12.61,43.93,0,110.4,13.16,12.28,357.2
"2016-04-13 00:51:30",1542274,2.169,33.09,4.857,0.368,14.46,104.7732,11.49,12.48,43.81,0,110.4,13.2,12.28,355.1
"2016-04-13 00:52:00",1542275,1.848,28.58,4.017,0.247,14.4,104.7726,11.49,12.5,43.7,0,110.4,13.21,12.28,350.6
"2016-04-13 00:52:30",1542276,1.971,18.81,4.912,0.523,14.39,104.7732,11.49,12.5,43.65,0,110.4,13.21,12.28,340.8
"2016-04-13 00:53:00",1542277,1.914,15.76,5.668,0.659,14.58,104.7732,11.49,12.5,43.79,0,110.4,13.21,12.28,337.8
"2016-04-13 00:53:30",1542278,2.174,20.58,3.645,0.324,14.76,104.7732,11.49,12.5,43.89,0,110.4,13.21,12.28,342.6
"2016-04-13 00:54:00",1542279,2.275,19.58,4.167,0.498,14.99,104.7732,11.49,12.5,43.93,0,110.4,13.22,12.28,341.6
"2016-04-13 00:54:30",1542280,1.88,14.29,8.78,1.242,16.4,104.7732,11.49,12.6,44,0,110.4,13.17,12.28,336.3
"2016-04-13 00:55:00",1542281,2.942,17.18,9.81,1.613,17.71,104.7732,11.49,12.68,43.98,0,110.4,13.17,12.28,339.2
"2016-04-13 00:55:30",1542282,3.064,15,8.2,1.43,16.58,104.7732,11.49,12.63,43.89,0,110.4,13.17,12.28,337.0
"2016-04-13 00:56:00",1542283,4.772,7.807,7.873,1.447,18.09,104.7732,11.49,12.73,43.68,0,110.4,13.17,12.28,329.8
"2016-04-13 00:56:30",1542284,3.835,4.835,9.19,1.454,15.74,104.7732,11.49,12.62,43.52,0,110.4,13.17,12.28,326.8
"2016-04-13 00:57:00",1542285,2.786,6.947,6.487,0.613,14.22,104.7732,11.49,12.5,43.21,0,110.4,13.21,12.28,328.9
"2016-04-13 00:57:30",1542286,3.146,358.8,4.187,0.73,14.29,104.7726,11.49,12.5,42.77,0,110.4,13.22,12.28,320.8
"2016-04-13 00:58:00",1542287,3.305,359.4,3.346,0.631,14.52,104.7718,11.49,12.49,42.53,0,110.4,13.22,12.28,321.4
"2016-04-13 00:58:30",1542288,2.906,2.664,9.5,0.862,14.81,104.7692,11.48,12.48,42.6,0,110.4,13.22,12.27,324.7
"2016-04-13 00:59:00",1542289,5.671,358.7,6.834,1.81,17.04,104.7692,11.48,12.58,42.64,0,110.4,13.17,12.27,320.7
"2016-04-13 00:59:30",1542290,4.79,359.4,9.81,1.33,16.55,104.769,11.48,12.58,42.65,0,110.4,13.17,12.27,321.4
"2016-04-13 01:00:00",1542291,4.865,358.1,7.133,1.625,16.3,104.769,11.48,12.52,42.55,0,110.4,13.17,12.27,320.1
"2016-04-13 01:00:30",1542292,4.837,4.447,7.504,2,17.11,104.7673,11.48,12.66,42.54,0,110.4,13.17,12.27,326.4
"2016-04-13 01:01:00",1542293,5.744,0.903,7.969,1.717,17.43,104.7715,11.49,12.64,42.45,0,110.4,13.17,12.28,322.9
"2016-04-13 01:01:30",1542294,4.897,352,3.655,0.946,14.6,104.7726,11.49,12.47,42.37,0,110.4,13.17,12.28,314.0
"2016-04-13 01:02:00",1542295,4.784,349.7,4.975,0.577,14.57,104.7732,11.49,12.48,41.91,0,110.4,13.22,12.28,311.7
"2016-04-13 01:02:30",1542296,4.278,348.6,4.769,0.578,14.84,104.7732,11.49,12.49,42.14,0,110.4,13.22,12.28,310.6
"2016-04-13 01:03:00",1542297,5.097,355.8,6.462,1.759,16.45,104.7732,11.49,12.6,42.31,0,110.4,13.17,12.28,317.8
"2016-04-13 01:03:30",1542298,4.295,1.429,7.732,1.435,17.04,104.7732,11.49,12.63,42.5,0,110.4,13.17,12.28,323.4
"2016-04-13 01:04:00",1542299,5.25,352.2,3.775,1.15,14.87,104.7732,11.49,12.54,41.96,0,110.4,13.21,12.28,314.2
"2016-04-13 01:04:30",1542300,6.781,360,7.743,1.475,17.51,104.7735,11.49,12.68,41.4,0,110.4,13.16,12.28,322.0
"2016-04-13 01:05:00",1542301,5.155,352.4,7.103,1.333,15.39,104.7791,11.51,12.59,41.23,0,110.4,13.16,12.30,314.4
"2016-04-13 01:05:30",1542302,4.834,359.9,8.66,1.026,16.17,104.7893,11.53,12.59,41.3,0,110.4,13.16,12.33,321.9
"2016-04-13 01:06:00",1542303,3.954,6.064,11.36,1.268,16.35,104.796,11.55,12.68,41.81,0,110.4,13.16,12.34,328.1
"2016-04-13 01:06:30",1542304,4.078,352.9,6.032,0.746,14.99,104.8022,11.57,12.52,41.7,0,110.4,13.21,12.36,314.9
"2016-04-13 01:07:00",1542305,6.931,353.7,8.1,1.531,17.46,104.807,11.58,12.66,41.64,0,110.4,13.16,12.37,315.7
"2016-04-13 01:07:30",1542306,7.057,352.6,7.644,1.449,16.8,104.807,11.58,12.65,40.65,0,110.4,13.16,12.37,314.6
"2016-04-13 01:08:00",1542307,5.485,352.3,1.988,0.652,14.88,104.807,11.58,12.55,40.36,0,110.4,13.21,12.37,314.3
"2016-04-13 01:08:30",1542308,5.261,0.304,8.92,1.196,16.55,104.8076,11.58,12.72,40.52,0,110.4,13.17,12.37,322.3
"2016-04-13 01:09:00",1542309,4.16,4.438,6.755,1.592,16.66,104.8186,11.61,12.69,40.42,0,110.4,13.17,12.40,326.4
"2016-04-13 01:09:30",1542310,4.143,355,2.243,0.667,14.79,104.8324,11.64,12.58,40.14,0,110.4,13.22,12.44,317.0
"2016-04-13 01:10:00",1542311,5.388,352.4,3.706,0.855,15.16,104.8389,11.66,12.65,39.8,0,110.4,13.22,12.45,314.4
"2016-04-13 01:10:30",1542312,7.235,358.6,7.029,1.74,17.58,104.8409,11.67,12.72,39.82,0,110.4,13.17,12.46,320.6
"2016-04-13 01:11:00",1542313,6.822,353.5,6.79,1.346,16.89,104.8409,11.67,12.78,39.85,0,110.4,13.17,12.46,315.5
"2016-04-13 01:11:30",1542314,7.454,352,6.308,1.389,17.22,104.8409,11.67,12.81,39.65,0,110.4,13.17,12.46,314.0
"2016-04-13 01:12:00",1542315,6.172,348.5,1.25,0.183,15.05,104.8409,11.67,12.63,39.57,0,110.4,13.22,12.46,310.5
"2016-04-13 01:12:30",1542316,7.159,355.9,6.746,1.677,17.5,104.8474,11.68,12.78,39.77,0,110.4,13.17,12.47,317.9
"2016-04-13 01:13:00",1542317,7.086,352.7,6.872,1.505,16.67,104.8564,11.7,12.75,39.82,0,110.4,13.17,12.50,314.7
"2016-04-13 01:13:30",1542318,6.346,348.9,1.203,0.176,15.07,104.8595,11.71,12.67,39.95,0,110.4,13.22,12.51,310.9
"2016-04-13 01:14:00",1542319,5.997,349.2,0.901,0.18,15.08,104.8683,11.74,12.67,39.52,0,110.4,13.22,12.53,311.2
"2016-04-13 01:14:30",1542320,5.883,346.1,2.929,0.579,15.48,104.8745,11.75,12.7,39.13,0,110.4,13.18,12.54,308.1
"2016-04-13 01:15:00",1542321,8.1,351.9,7.069,1.448,18.71,104.8747,11.75,12.92,39.25,0,110.4,13.17,12.54,313.9
"2016-04-13 01:15:30",1542322,7.497,359.2,5.986,1.958,18.38,104.8747,11.75,12.94,39.11,0,110.4,13.17,12.54,321.2
"2016-04-13 01:16:00",1542323,6.678,342.4,2.215,0.366,15.23,104.8747,11.75,12.72,38.76,0,110.4,13.18,12.54,304.4
"2016-04-13 01:16:30",1542324,7.637,344.4,5.664,1.466,16.63,104.8762,11.76,12.84,38.64,0,110.4,13.17,12.55,306.4
"2016-04-13 01:17:00",1542325,7.121,346.7,8.4,1.525,17.05,104.8857,11.78,12.91,38.53,0,110.4,13.17,12.57,308.7
"2016-04-13 01:17:30",1542326,5.103,348.9,3.735,0.491,15.19,104.8948,11.8,12.75,38.75,0,110.4,13.22,12.60,310.9
"2016-04-13 01:18:00",1542327,5.712,341.7,3.264,0.383,15.26,104.9007,11.82,12.76,38.93,0,110.4,13.22,12.61,303.7
"2016-04-13 01:18:30",1542328,5.606,343.7,2.264,0.38,15.4,104.908,11.84,12.8,39.12,0,110.4,13.22,12.63,305.7
"2016-04-13 01:19:00",1542329,7.349,349.5,7.068,1.382,18.06,104.9086,11.84,12.98,38.68,0,110.4,13.17,12.63,311.5
"2016-04-13 01:19:30",1542330,7.707,350.1,8.11,1.287,19.49,104.9086,11.84,13.04,38.58,0,110.4,13.18,12.63,312.1
"2016-04-13 01:20:00",1542331,5.626,347.2,4.999,1.017,15.9,104.9151,11.86,12.91,38.57,0,110.4,13.17,12.65,309.2
"2016-04-13 01:20:30",1542332,5.375,344.2,6.428,1.34,16.54,104.923,11.88,12.92,38.71,0,110.4,13.17,12.67,306.2
"2016-04-13 01:21:00",1542333,5.988,343,7.094,1.304,16.7,104.9275,11.89,12.99,38.64,0,110.4,13.17,12.68,305.0
"2016-04-13 01:21:30",1542334,5.847,333,3.596,0.343,15.21,104.9337,11.9,12.86,38.19,0,110.4,13.21,12.70,295.0
"2016-04-13 01:22:00",1542335,4.911,330.3,4.028,0.096,15.28,104.9405,11.92,12.89,38.48,0,110.4,13.21,12.71,292.3
"2016-04-13 01:22:30",1542336,4.901,324.9,2.795,0.193,15.49,104.9425,11.93,12.88,38.68,0,110.4,13.21,12.72,286.9
"2016-04-13 01:23:00",1542337,5.626,335.6,8.09,1.398,18.2,104.9425,11.93,13.1,38.56,0,110.4,13.17,12.72,297.6
"2016-04-13 01:23:30",1542338,5.577,338.2,7.8,1.332,17.07,104.9425,11.93,13.02,38.29,0,110.4,13.17,12.72,300.2
"2016-04-13 01:24:00",1542339,6.334,343.5,8.3,1.272,16.6,104.9425,11.93,13.01,38.38,0,110.4,13.17,12.72,305.5
"2016-04-13 01:24:30",1542340,7.075,339.9,8.33,1.322,17.04,104.9425,11.93,13.09,38.45,0,110.4,13.17,12.72,301.9
"2016-04-13 01:25:00",1542341,8.26,341.8,6.63,1.519,17.76,104.947,11.94,13.13,39.42,0,110.4,13.17,12.73,303.8
"2016-04-13 01:25:30",1542342,7.743,347.9,7.64,1.498,17.97,104.9577,11.96,13.09,38.8,0,110.4,13.17,12.76,309.9
"2016-04-13 01:26:00",1542343,6.338,341.7,1.331,0.294,15.4,104.9664,11.99,12.96,37.73,0,110.4,13.22,12.78,303.7
"2016-04-13 01:26:30",1542344,7.105,342.1,5.003,1.014,15.93,104.9709,12,12.98,38.2,0,110.4,13.17,12.79,304.1
"2016-04-13 01:27:00",1542345,8.01,347.6,10.03,1.528,18.25,104.9757,12.01,13.16,38.8,0,110.4,13.18,12.80,309.6
"2016-04-13 01:27:30",1542346,7.079,334.7,2.805,0.574,15.29,104.9766,12.01,12.98,39.07,0,110.4,13.18,12.81,296.7
"2016-04-13 01:28:00",1542347,6.635,335.3,1.874,0.317,15.09,104.9763,12.01,13,39.14,0,110.4,13.22,12.81,297.3
"2016-04-13 01:28:30",1542348,7.604,339.1,7.277,1.217,16.68,104.9766,12.01,13.12,39.41,0,110.4,13.18,12.81,301.1
"2016-04-13 01:29:00",1542349,8.66,340.2,7.771,1.539,18.28,104.9763,12.01,13.27,39.75,0,110.4,13.17,12.81,302.2
"2016-04-13 01:29:30",1542350,8.09,342.1,7.676,1.432,18.14,104.9766,12.01,13.19,39.69,0,110.4,13.18,12.81,304.1
"2016-04-13 01:30:00",1542351,6.913,336.4,2.266,0.796,15.36,104.9766,12.01,13.03,38.91,0,110.4,13.18,12.81,298.4
"2016-04-13 01:30:30",1542352,8.79,338.7,6.408,1.317,17.19,104.9766,12.01,13.24,39.68,0,110.4,13.17,12.81,300.7
"2016-04-13 01:31:00",1542353,7.988,334.6,4.807,0.95,16.09,104.9763,12.01,13.1,39.5,0,110.4,13.18,12.81,296.6
"2016-04-13 01:31:30",1542354,7.854,331.4,1.292,0.202,15.02,104.9766,12.01,13.04,39.5,0,110.4,13.22,12.81,293.4
"2016-04-13 01:32:00",1542355,7.639,334,0.936,0.138,15.06,104.9769,12.01,13.03,39.48,0,110.4,13.22,12.81,296.0
"2016-04-13 01:32:30",1542356,8.76,340.7,7.292,1.37,17.82,104.9766,12.01,13.22,39.67,0,110.4,13.18,12.81,302.7
"2016-04-13 01:33:00",1542357,9.56,343.2,7.05,1.359,18.94,104.9763,12.01,13.27,39.39,0,110.4,13.18,12.81,305.2
"2016-04-13 01:33:30",1542358,8.85,335.2,7.274,1.307,17.09,104.9769,12.01,13.19,39.21,0,110.4,13.18,12.81,297.2
"2016-04-13 01:34:00",1542359,9.23,340.8,9.6,1.44,18.31,104.9769,12.01,13.19,39.05,0,110.4,13.18,12.81,302.8
"2016-04-13 01:34:30",1542360,8.11,335.3,5.775,1.028,16.52,104.9775,12.01,13.13,38.47,0,110.4,13.18,12.81,297.3
"2016-04-13 01:35:00",1542361,7.502,331.1,1.402,0.186,15.14,104.9766,12.01,13.04,38.2,0,110.4,13.22,12.81,293.1
"2016-04-13 01:35:30",1542362,7.8,331.4,0.717,0.219,15.27,104.9778,12.02,13.02,37.82,0,110.4,13.22,12.81,293.4
"2016-04-13 01:36:00",1542363,7.636,334.2,5.072,0.745,15.92,104.9799,12.02,13.03,37.42,0,110.4,13.18,12.82,296.2
"2016-04-13 01:36:30",1542364,8.95,337,7.872,1.398,18.15,104.9781,12.02,13.23,37.56,0,110.4,13.17,12.81,299.0
"2016-04-13 01:37:00",1542365,8.88,339.9,9.95,1.475,19.64,104.9787,12.02,13.27,37.44,0,110.4,13.17,12.81,301.9
"2016-04-13 01:37:30",1542366,7.759,340,9.21,1.516,17.7,104.9796,12.02,13.18,37.31,0,110.4,13.17,12.81,302.0
"2016-04-13 01:38:00",1542367,8.52,341.4,11.18,1.513,18.45,104.9799,12.02,13.17,37.25,0,110.4,13.17,12.82,303.4
"2016-04-13 01:38:30",1542368,7.081,331.6,2.441,0.275,15.26,104.9804,12.02,13.02,37,0,110.4,13.21,12.82,293.6
"2016-04-13 01:39:00",1542369,7.376,329.6,1.669,0.322,15.18,104.9816,12.03,13.04,36.83,0,110.4,13.22,12.82,291.6
"2016-04-13 01:39:30",1542370,7.653,329.9,1.779,0.197,15.36,104.9841,12.03,13.04,36.79,0,110.4,13.21,12.83,291.9
"2016-04-13 01:40:00",1542371,7.375,326.1,3.23,0.401,15.61,104.989,12.04,13.05,37.07,0,110.4,13.22,12.84,288.1
"2016-04-13 01:40:30",1542372,8.63,333.2,8.28,1.539,18.63,105.0001,12.07,13.25,37.03,0,110.4,13.17,12.87,295.2
"2016-04-13 01:41:00",1542373,8.2,335.4,7.849,1.421,19.57,105.0088,12.09,13.28,37.05,0,110.4,13.17,12.89,297.4
"2016-04-13 01:41:30",1542374,7.353,335,7.225,1.54,18.86,105.0141,12.11,13.32,36.61,0,110.4,13.17,12.90,297.0
"2016-04-13 01:42:00",1542375,7.038,331.1,6.378,1.322,17.87,105.0164,12.11,13.2,36.49,0,110.4,13.17,12.91,293.1
"2016-04-13 01:42:30",1542376,6.575,325,1.645,0.188,15.29,105.017,12.12,13.09,36.47,0,110.4,13.22,12.91,287.0
"2016-04-13 01:43:00",1542377,6.521,321.6,2.489,0.129,15.14,105.017,12.12,13.1,36.8,0,110.4,13.22,12.91,283.6
"2016-04-13 01:43:30",1542378,6.694,321.3,1.658,0.188,15.45,105.019,12.12,13.12,37.38,0,110.4,13.22,12.92,283.3
"2016-04-13 01:44:00",1542379,6.519,326,4.395,0.406,15.7,105.0275,12.14,13.12,36.97,0,110.4,13.23,12.94,288.0
"2016-04-13 01:44:30",1542380,6.656,340.7,8.45,1.382,18.01,105.033,12.16,13.22,36.65,0,110.4,13.18,12.95,302.7
"2016-04-13 01:45:00",1542381,7.544,339.1,8.42,1.492,19.67,105.0388,12.17,13.41,36.52,0,110.4,13.18,12.97,301.1
"2016-04-13 01:45:30",1542382,8.16,334.7,7.148,1.319,19.31,105.0459,12.19,13.4,36.74,0,110.4,13.18,12.98,296.7
"2016-04-13 01:46:00",1542383,7.457,328.9,6.706,1.361,17.42,105.0506,12.2,13.26,36.72,0,110.4,13.18,13.00,290.9
"2016-04-13 01:46:30",1542384,6.193,320.5,1.35,0.168,15.39,105.052,12.21,13.21,36.63,0,110.4,13.22,13.00,282.5
"2016-04-13 01:47:00",1542385,6.331,316.8,1.073,0.167,15.09,105.0529,12.21,13.18,37.26,0,110.4,13.22,13.00,278.8
"2016-04-13 01:47:30",1542386,6.254,315.2,1.276,0.123,15.25,105.0529,12.21,13.18,37.27,0,110.4,13.23,13.00,277.2